User: anonymous   Login
Location: Vancouver
(49.2500°N, 123.1330°W)
Time: 18:46:21
(UTC-07:00)
Language:

Cosmos 1408 Rocket - Orbit

View from above orbital plane
View from above orbital plane
View from above satellite
View from above satellite

Ground track
Ground track

The orbit data is extracted from the following two-line orbital elements,

1 13553U 82092B   16243.89340245 +.00000105 +00000-0 +96869-5 0  9998
2 13553 082.5707 144.5426 0019918 285.4072 121.1321 14.84073250812893
Epoch (UTC): 30 August 2016 21:26:29
Eccentricity: 0.0019918
inclination: 82.5707°
perigee height: 602 km
apogee height: 630 km
right ascension of ascending node: 144.5426°
argument of perigee: 285.4072°
revolutions per day: 14.84073250
mean anomaly at epoch: 121.1321°
orbit number at epoch: 81289

The dashed part of the orbit path shows where the satellite is in the earth's shadow,  

DLR